Location: Bli��� Lhota
(48.7570°N, 14.0120°E)
Time: 06:25:32
(UTC+00:00)

USA 234 - Pass Details

Date: 18 September 2020
Orbit: 1102 x 1106 km, 123.0° (Epoch: 16 October)

Event Time Altitude Azimuth Distance (km) Brightness Sun altitude
Rises 21:58:38 0° 65° (ENE) 3,924 6.2 -38.2°
Reaches altitude 10° 22:01:12 10° 60° (ENE) 2,966 5.6 -38.4°
Enters shadow 22:03:22 22° 51° (NE) 2,222 5.0 -38.5°
Exits shadow 22:06:55 46° 2° (N) 1,449 4.1 -38.6°
Maximum altitude 22:07:23 47° 349° (N) 1,434 4.0 -38.7°
Drops below altitude 10° 22:13:34 10° 279° (W) 2,965 5.7 -38.9°
Sets 22:16:08 0° 274° (W) 3,923 6.3 -39.0°
